| time (UTC) | temp C | wind direction | speed KPH | gust KPH | rain 1hr cm | rain 24hr cm | rain mn cm | humidity % | barometer mb |
| 20260506201553 | 22 | 0 | 0.0 | 0.0 | 0.00 | 0.00 | 0.00 | 65 | 1020.2 |
| 20260506201041 | 21 | 0 | 0.0 | 0.0 | 0.00 | 0.00 | 0.00 | 65 | 1020.3 |
| 20260506200540 | 21 | 0 | 0.0 | 0.0 | 0.00 | 0.00 | 0.00 | 66 | 1020.4 |
| 20260506200051 | 21 | 0 | 0.0 | 0.0 | 0.00 | 0.00 | 0.00 | 67 | 1020.5 |
| 20260506195541 | 21 | 0 | 0.0 | 0.0 | 0.00 | 0.00 | 0.00 | 69 | 1020.4 |
| 20260506195043 | 20 | 0 | 0.0 | 12.9 | 0.00 | 0.00 | 0.00 | 67 | 1020.5 |
| 20260506194549 | 20 | 0 | 1.6 | 12.9 | 0.00 | 0.00 | 0.00 | 69 | 1020.4 |
| 20260506194040 | 20 | 0 | 0.0 | 6.4 | 0.00 | 0.00 | 0.00 | 70 | 1020.5 |
| 20260506193541 | 20 | 0 | 0.0 | 6.4 | 0.00 | 0.00 | 0.00 | 71 | 1020.6 |
| 20260506193053 | 20 | 0 | 0.0 | 1.6 | 0.00 | 0.00 | 0.00 | 70 | 1020.7 |
| 20260506192541 | 20 | 0 | 0.0 | 14.5 | 0.00 | 0.00 | 0.00 | 70 | 1020.8 |
| 20260506192041 | 20 | 0 | 0.0 | 14.5 | 0.00 | 0.00 | 0.00 | 69 | 1020.7 |
| 20260506191549 | 20 | 0 | 3.2 | 14.5 | 0.00 | 0.00 | 0.00 | 71 | 1020.9 |
| 20260506191041 | 20 | 295 | 6.4 | 14.5 | 0.00 | 0.00 | 0.00 | 71 | 1020.7 |
| 20260506190543 | 20 | 0 | 0.0 | 0.0 | 0.00 | 0.00 | 0.00 | 73 | 1020.8 |
| 20260506190053 | 19 | 0 | 0.0 | 0.0 | 0.00 | 0.00 | 0.00 | 72 | 1020.8 |
| 20260506185541 | 19 | 0 | 0.0 | 11.3 | 0.00 | 0.00 | 0.00 | 72 | 1020.9 |
| 20260506185041 | 19 | 0 | 0.0 | 11.3 | 0.00 | 0.00 | 0.00 | 72 | 1021.0 |
| 20260506184553 | 19 | 0 | 0.0 | 0.0 | 0.00 | 0.00 | 0.00 | 72 | 1020.9 |
| 20260506184041 | 19 | 0 | 0.0 | 0.0 | 0.00 | 0.00 | 0.00 | 71 | 1020.9 |
| 20260506183541 | 19 | 0 | 0.0 | 0.0 | 0.00 | 0.00 | 0.00 | 72 | 1020.9 |
| 20260506183057 | 19 | 0 | 0.0 | 0.0 | 0.00 | 0.00 | 0.00 | 72 | 1020.9 |
| 20260506182540 | 18 | 0 | 0.0 | 0.0 | 0.00 | 0.00 | 0.00 | 73 | 1021.1 |
| 20260506182040 | 18 | 0 | 0.0 | 0.0 | 0.00 | 0.00 | 0.00 | 73 | 1021.1 |
| 20260506181618 | 18 | 0 | 0.0 | 0.0 | 0.00 | 0.00 | 0.00 | 74 | 1021.1 |
| 20260506181042 | 18 | 0 | 0.0 | 0.0 | 0.00 | 0.00 | 0.00 | 75 | 1021.0 |
| 20260506180541 | 17 | 0 | 0.0 | 0.0 | 0.00 | 0.00 | 0.00 | 75 | 1020.9 |
| 20260506180051 | 18 | 0 | 0.0 | 0.0 | 0.00 | 0.00 | 0.00 | 75 | 1020.9 |
| 20260506175542 | 17 | 0 | 0.0 | 0.0 | 0.00 | 0.00 | 0.00 | 76 | 1020.9 |
| 20260506175044 | 17 | 0 | 0.0 | 0.0 | 0.00 | 0.00 | 0.00 | 76 | 1020.9 |
| 20260506174548 | 17 | 0 | 0.0 | 0.0 | 0.00 | 0.00 | 0.00 | 77 | 1020.9 |
| 20260506174041 | 17 | 0 | 0.0 | 0.0 | 0.00 | 0.00 | 0.00 | 78 | 1020.8 |
| 20260506173541 | 16 | 0 | 0.0 | 0.0 | 0.00 | 0.00 | 0.00 | 78 | 1020.8 |
| 20260506173056 | 16 | 0 | 0.0 | 0.0 | 0.00 | 0.00 | 0.00 | 77 | 1020.9 |
| 20260506172544 | 16 | 0 | 0.0 | 0.0 | 0.00 | 0.00 | 0.00 | 77 | 1020.9 |
| 20260506172044 | 16 | 0 | 0.0 | 0.0 | 0.00 | 0.00 | 0.00 | 78 | 1020.9 |
| 20260506171549 | 16 | 0 | 0.0 | 0.0 | 0.00 | 0.00 | 0.00 | 78 | 1020.9 |
| 20260506171041 | 17 | 0 | 0.0 | 0.0 | 0.00 | 0.00 | 0.00 | 79 | 1020.9 |
| 20260506170540 | 16 | 0 | 0.0 | 0.0 | 0.00 | 0.00 | 0.00 | 80 | 1021.1 |
| 20260506170052 | 16 | 0 | 0.0 | 0.0 | 0.00 | 0.00 | 0.00 | 80 | 1021.1 |
| 20260506165540 | 16 | 0 | 0.0 | 0.0 | 0.00 | 0.00 | 0.00 | 80 | 1021.0 |
| 20260506165044 | 16 | 0 | 0.0 | 0.0 | 0.00 | 0.00 | 0.00 | 81 | 1021.0 |
| 20260506164551 | 16 | 0 | 0.0 | 0.0 | 0.00 | 0.00 | 0.00 | 82 | 1021.0 |
| 20260506164041 | 15 | 0 | 0.0 | 0.0 | 0.00 | 0.00 | 0.00 | 82 | 1021.1 |
| 20260506163540 | 15 | 0 | 0.0 | 0.0 | 0.00 | 0.00 | 0.00 | 83 | 1021.0 |
| 20260506163051 | 15 | 0 | 0.0 | 0.0 | 0.00 | 0.00 | 0.00 | 83 | 1021.2 |
| 20260506162541 | 15 | 0 | 0.0 | 0.0 | 0.00 | 0.00 | 0.00 | 84 | 1021.1 |
| 20260506162040 | 15 | 0 | 0.0 | 0.0 | 0.00 | 0.00 | 0.00 | 85 | 1021.2 |
| 20260506161550 | 15 | 0 | 0.0 | 0.0 | 0.00 | 0.00 | 0.00 | 86 | 1021.1 |
| 20260506161040 | 15 | 0 | 0.0 | 0.0 | 0.00 | 0.00 | 0.00 | 86 | 1021.1 |
| 20260506160541 | 14 | 0 | 0.0 | 0.0 | 0.00 | 0.00 | 0.00 | 87 | 1021.1 |
| 20260506160053 | 14 | 0 | 0.0 | 0.0 | 0.00 | 0.00 | 0.00 | 87 | 1021.1 |
| 20260506155545 | 13 | 0 | 0.0 | 0.0 | 0.00 | 0.00 | 0.00 | 87 | 1021.1 |
| 20260506155042 | 13 | 0 | 0.0 | 0.0 | 0.00 | 0.00 | 0.00 | 88 | 1021.3 |
| 20260506154555 | 13 | 0 | 0.0 | 0.0 | 0.00 | 0.00 | 0.00 | 88 | 1021.3 |
| 20260506154041 | 13 | 0 | 0.0 | 0.0 | 0.00 | 0.00 | 0.00 | 88 | 1021.3 |
| 20260506153540 | 13 | 0 | 0.0 | 0.0 | 0.00 | 0.00 | 0.00 | 88 | 1021.3 |
| 20260506153108 | 13 | 0 | 0.0 | 0.0 | 0.00 | 0.00 | 0.00 | 88 | 1021.1 |
| 20260506152540 | 13 | 0 | 0.0 | 0.0 | 0.00 | 0.00 | 0.00 | 88 | 1021.1 |
| 20260506152040 | 13 | 0 | 0.0 | 0.0 | 0.00 | 0.00 | 0.00 | 89 | 1021.1 |
| 20260506151549 | 13 | 0 | 0.0 | 0.0 | 0.00 | 0.00 | 0.00 | 89 | 1021.1 |
| 20260506151042 | 13 | 0 | 0.0 | 0.0 | 0.00 | 0.00 | 0.00 | 89 | 1021.0 |
| 20260506150540 | 13 | 0 | 0.0 | 0.0 | 0.00 | 0.00 | 0.00 | 90 | 1021.1 |
| 20260506150059 | 13 | 0 | 0.0 | 0.0 | 0.00 | 0.00 | 0.00 | 90 | 1021.0 |
| 20260506145541 | 13 | 0 | 0.0 | 0.0 | 0.00 | 0.00 | 0.00 | 89 | 1021.1 |
| 20260506145041 | 13 | 0 | 0.0 | 0.0 | 0.00 | 0.00 | 0.00 | 89 | 1021.1 |
| 20260506144556 | 12 | 0 | 0.0 | 0.0 | 0.00 | 0.00 | 0.00 | 89 | 1021.0 |
| 20260506144040 | 12 | 0 | 0.0 | 0.0 | 0.00 | 0.00 | 0.00 | 89 | 1021.0 |
| 20260506143541 | 12 | 0 | 0.0 | 0.0 | 0.00 | 0.00 | 0.00 | 89 | 1020.8 |
| 20260506143047 | 12 | 0 | 0.0 | 0.0 | 0.00 | 0.00 | 0.00 | 89 | 1020.8 |
| 20260506142541 | 12 | 0 | 0.0 | 0.0 | 0.00 | 0.00 | 0.00 | 89 | 1020.9 |
| 20260506142042 | 12 | 0 | 0.0 | 0.0 | 0.00 | 0.00 | 0.00 | 89 | 1020.9 |
| 20260506141549 | 12 | 0 | 0.0 | 0.0 | 0.00 | 0.00 | 0.00 | 89 | 1020.7 |
| 20260506141042 | 12 | 0 | 0.0 | 0.0 | 0.00 | 0.00 | 0.00 | 89 | 1020.7 |
| 20260506140546 | 12 | 0 | 0.0 | 0.0 | 0.00 | 0.00 | 0.00 | 88 | 1020.6 |
| 20260506140048 | 12 | 0 | 0.0 | 0.0 | 0.00 | 0.00 | 0.00 | 88 | 1020.6 |
| 20260506135540 | 12 | 0 | 0.0 | 0.0 | 0.00 | 0.00 | 0.00 | 88 | 1020.5 |
| 20260506135040 | 12 | 0 | 0.0 | 0.0 | 0.00 | 0.00 | 0.00 | 88 | 1020.6 |
| 20260506134548 | 12 | 0 | 0.0 | 0.0 | 0.00 | 0.00 | 0.00 | 88 | 1020.5 |
| 20260506134043 | 12 | 0 | 0.0 | 0.0 | 0.00 | 0.00 | 0.00 | 88 | 1020.5 |
| 20260506133540 | 12 | 0 | 0.0 | 0.0 | 0.00 | 0.00 | 0.00 | 88 | 1020.4 |
| 20260506133053 | 12 | 0 | 0.0 | 0.0 | 0.00 | 0.00 | 0.00 | 88 | 1020.4 |
| 20260506132545 | 12 | 0 | 0.0 | 0.0 | 0.00 | 0.00 | 0.00 | 87 | 1020.4 |
| 20260506132045 | 12 | 0 | 0.0 | 0.0 | 0.00 | 0.00 | 0.00 | 87 | 1020.4 |
| 20260506131552 | 12 | 0 | 0.0 | 0.0 | 0.00 | 0.00 | 0.00 | 87 | 1020.3 |
| 20260506131041 | 12 | 0 | 0.0 | 0.0 | 0.00 | 0.00 | 0.00 | 87 | 1020.3 |
| 20260506130543 | 12 | 0 | 0.0 | 0.0 | 0.00 | 0.00 | 0.00 | 87 | 1020.1 |
| 20260506130049 | 12 | 0 | 0.0 | 0.0 | 0.00 | 0.00 | 0.00 | 87 | 1020.1 |
| 20260506125540 | 12 | 0 | 0.0 | 0.0 | 0.00 | 0.00 | 0.00 | 87 | 1020.2 |
| 20260506125040 | 12 | 0 | 0.0 | 0.0 | 0.00 | 0.00 | 0.00 | 87 | 1020.1 |
| 20260506124550 | 12 | 0 | 0.0 | 0.0 | 0.00 | 0.00 | 0.00 | 87 | 1020.1 |
| 20260506124041 | 12 | 0 | 0.0 | 0.0 | 0.00 | 0.00 | 0.00 | 87 | 1020.1 |
| 20260506123540 | 12 | 0 | 0.0 | 0.0 | 0.00 | 0.00 | 0.00 | 87 | 1020.1 |
| 20260506123049 | 12 | 0 | 0.0 | 0.0 | 0.00 | 0.00 | 0.00 | 87 | 1020.1 |
| 20260506122542 | 12 | 0 | 0.0 | 0.0 | 0.00 | 0.00 | 0.00 | 87 | 1020.1 |
| 20260506122037 | 12 | 0 | 0.0 | 0.0 | 0.00 | 0.00 | 0.00 | 87 | 1020.0 |
| 20260506121545 | 12 | 0 | 0.0 | 0.0 | 0.00 | 0.00 | 0.00 | 87 | 1020.0 |
| 20260506121042 | 12 | 0 | 0.0 | 0.0 | 0.00 | 0.00 | 0.00 | 87 | 1019.9 |
| 20260506120541 | 12 | 0 | 0.0 | 0.0 | 0.00 | 0.00 | 0.00 | 87 | 1019.9 |
| 20260506120052 | 12 | 0 | 0.0 | 0.0 | 0.00 | 0.00 | 0.00 | 87 | 1020.0 |
| 20260506115540 | 12 | 0 | 0.0 | 0.0 | 0.00 | 0.00 | 0.00 | 86 | 1020.0 |
| 20260506115037 | 12 | 0 | 0.0 | 0.0 | 0.00 | 0.00 | 0.00 | 86 | 1019.8 |
| 20260506114550 | 12 | 0 | 0.0 | 0.0 | 0.00 | 0.00 | 0.00 | 87 | 1019.8 |
| 20260506114041 | 12 | 0 | 0.0 | 0.0 | 0.00 | 0.00 | 0.00 | 86 | 1019.8 |
| 20260506113541 | 12 | 0 | 0.0 | 0.0 | 0.00 | 0.00 | 0.00 | 86 | 1019.8 |
| 20260506113048 | 12 | 0 | 0.0 | 0.0 | 0.00 | 0.00 | 0.00 | 86 | 1019.8 |
| 20260506112541 | 12 | 0 | 0.0 | 0.0 | 0.00 | 0.00 | 0.00 | 86 | 1019.7 |
| 20260506112042 | 12 | 0 | 0.0 | 0.0 | 0.00 | 0.00 | 0.00 | 86 | 1019.7 |
| 20260506111549 | 12 | 0 | 0.0 | 0.0 | 0.00 | 0.00 | 0.00 | 86 | 1019.6 |
| 20260506111040 | 12 | 0 | 0.0 | 0.0 | 0.00 | 0.00 | 0.00 | 86 | 1019.6 |
| 20260506110543 | 12 | 0 | 0.0 | 0.0 | 0.00 | 0.00 | 0.00 | 86 | 1019.5 |
| 20260506110049 | 12 | 0 | 0.0 | 0.0 | 0.00 | 0.00 | 0.00 | 86 | 1019.4 |
| 20260506105544 | 12 | 0 | 0.0 | 0.0 | 0.00 | 0.00 | 0.00 | 86 | 1019.3 |
| 20260506105044 | 12 | 0 | 0.0 | 0.0 | 0.00 | 0.00 | 0.00 | 86 | 1019.3 |
| 20260506104545 | 12 | 0 | 0.0 | 0.0 | 0.00 | 0.00 | 0.00 | 86 | 1019.4 |
| 20260506104041 | 12 | 0 | 0.0 | 0.0 | 0.00 | 0.00 | 0.00 | 86 | 1019.3 |
| 20260506103540 | 12 | 0 | 0.0 | 0.0 | 0.00 | 0.00 | 0.00 | 85 | 1019.4 |
| 20260506103055 | 12 | 0 | 0.0 | 0.0 | 0.00 | 0.00 | 0.00 | 85 | 1019.2 |
| 20260506102541 | 12 | 0 | 0.0 | 0.0 | 0.00 | 0.00 | 0.00 | 85 | 1019.2 |
| 20260506102040 | 12 | 0 | 0.0 | 0.0 | 0.00 | 0.00 | 0.00 | 85 | 1019.3 |
| 20260506101548 | 12 | 0 | 0.0 | 0.0 | 0.00 | 0.00 | 0.00 | 85 | 1019.2 |
| 20260506101041 | 12 | 0 | 0.0 | 0.0 | 0.00 | 0.00 | 0.00 | 85 | 1019.1 |
| 20260506100544 | 12 | 0 | 0.0 | 0.0 | 0.00 | 0.00 | 0.00 | 85 | 1019.1 |
| 20260506100046 | 12 | 0 | 0.0 | 0.0 | 0.00 | 0.00 | 0.00 | 85 | 1019.1 |
| 20260506095542 | 12 | 0 | 0.0 | 0.0 | 0.00 | 0.03 | 0.00 | 85 | 1019.2 |
| 20260506095041 | 12 | 0 | 0.0 | 0.0 | 0.00 | 0.03 | 0.00 | 85 | 1019.2 |
| 20260506094547 | 12 | 0 | 0.0 | 0.0 | 0.00 | 0.03 | 0.00 | 85 | 1019.3 |
| 20260506094043 | 12 | 0 | 0.0 | 0.0 | 0.00 | 0.03 | 0.00 | 85 | 1019.4 |
| 20260506093542 | 12 | 0 | 0.0 | 0.0 | 0.00 | 0.03 | 0.00 | 85 | 1019.3 |
| 20260506093047 | 12 | 0 | 0.0 | 0.0 | 0.00 | 0.03 | 0.00 | 85 | 1019.3 |
| 20260506092540 | 12 | 0 | 0.0 | 0.0 | 0.00 | 0.03 | 0.00 | 85 | 1019.3 |
| 20260506092040 | 12 | 0 | 0.0 | 0.0 | 0.00 | 0.03 | 0.00 | 85 | 1019.3 |
| 20260506091553 | 12 | 0 | 0.0 | 0.0 | 0.00 | 0.03 | 0.00 | 85 | 1019.3 |
| 20260506091041 | 12 | 0 | 0.0 | 0.0 | 0.00 | 0.03 | 0.00 | 85 | 1019.3 |
| 20260506090544 | 12 | 0 | 0.0 | 0.0 | 0.00 | 0.03 | 0.00 | 84 | 1019.4 |
| 20260506090056 | 12 | 0 | 0.0 | 0.0 | 0.00 | 0.03 | 0.00 | 84 | 1019.3 |
| 20260506085540 | 12 | 0 | 0.0 | 0.0 | 0.00 | 0.08 | 0.00 | 84 | 1019.4 |
| 20260506085041 | 12 | 0 | 0.0 | 0.0 | 0.00 | 0.08 | 0.00 | 84 | 1019.3 |
| 20260506084551 | 12 | 0 | 0.0 | 0.0 | 0.00 | 0.08 | 0.00 | 84 | 1019.3 |
| 20260506084041 | 12 | 0 | 0.0 | 0.0 | 0.00 | 0.08 | 0.00 | 84 | 1019.3 |
| 20260506083542 | 12 | 0 | 0.0 | 6.4 | 0.00 | 0.08 | 0.00 | 84 | 1019.3 |
| 20260506083050 | 12 | 0 | 0.0 | 6.4 | 0.00 | 0.08 | 0.00 | 84 | 1019.3 |
| 20260506082540 | 12 | 0 | 0.0 | 6.4 | 0.00 | 0.08 | 0.00 | 84 | 1019.2 |
| 20260506082040 | 12 | 0 | 0.0 | 4.8 | 0.00 | 0.08 | 0.00 | 84 | 1019.3 |
| 20260506081551 | 12 | 0 | 0.0 | 0.0 | 0.00 | 0.08 | 0.00 | 84 | 1019.4 |
| 20260506081041 | 12 | 0 | 0.0 | 0.0 | 0.00 | 0.08 | 0.00 | 84 | 1019.3 |
| 20260506080540 | 12 | 0 | 0.0 | 0.0 | 0.00 | 0.08 | 0.00 | 84 | 1019.4 |
| 20260506073050 | 12 | 0 | 0.0 | 0.0 | 0.00 | 0.28 | 0.00 | 84 | 1019.2 |
| 20260506072541 | 12 | 0 | 0.0 | 0.0 | 0.00 | 0.28 | 0.00 | 84 | 1019.2 |
| 20260506072041 | 12 | 0 | 0.0 | 0.0 | 0.00 | 0.28 | 0.00 | 84 | 1019.0 |
| 20260506071601 | 12 | 0 | 0.0 | 0.0 | 0.00 | 0.28 | 0.00 | 84 | 1018.9 |
| 20260506071039 | 12 | 0 | 0.0 | 0.0 | 0.00 | 0.28 | 0.00 | 84 | 1019.0 |
| 20260506070540 | 12 | 0 | 0.0 | 0.0 | 0.00 | 0.28 | 0.00 | 84 | 1019.0 |
| 20260506062041 | 12 | 0 | 0.0 | 0.0 | 0.00 | 0.33 | 0.28 | 85 | 1018.6 |
| 20260506061549 | 12 | 0 | 0.0 | 0.0 | 0.00 | 0.33 | 0.28 | 85 | 1018.7 |
| 20260506061040 | 12 | 0 | 0.0 | 0.0 | 0.00 | 0.33 | 0.28 | 85 | 1018.6 |
| 20260506060541 | 12 | 0 | 0.0 | 0.0 | 0.00 | 0.33 | 0.28 | 86 | 1018.6 |
| 20260506051040 | 13 | 0 | 0.0 | 0.0 | 0.00 | 0.48 | 0.28 | 88 | 1018.4 |
| 20260506050540 | 13 | 0 | 0.0 | 0.0 | 0.00 | 0.48 | 0.28 | 88 | 1018.3 |
| 20260506045040 | 13 | 0 | 0.0 | 0.0 | 0.00 | 0.64 | 0.28 | 87 | 1018.2 |
| 20260506044542 | 13 | 0 | 0.0 | 0.0 | 0.00 | 0.64 | 0.28 | 87 | 1018.2 |
| 20260506044040 | 13 | 0 | 0.0 | 0.0 | 0.00 | 0.64 | 0.28 | 87 | 1018.0 |
| 20260506043540 | 13 | 0 | 0.0 | 0.0 | 0.00 | 0.64 | 0.28 | 87 | 1017.9 |
| 20260506043049 | 13 | 0 | 0.0 | 0.0 | 0.00 | 0.64 | 0.28 | 87 | 1017.9 |
| 20260506042541 | 13 | 0 | 0.0 | 0.0 | 0.00 | 0.64 | 0.28 | 86 | 1017.9 |
| 20260506042041 | 13 | 0 | 0.0 | 0.0 | 0.00 | 0.64 | 0.28 | 86 | 1017.8 |
| 20260506041551 | 13 | 0 | 0.0 | 0.0 | 0.00 | 0.64 | 0.28 | 86 | 1017.7 |
| 20260506041040 | 13 | 0 | 0.0 | 0.0 | 0.00 | 0.64 | 0.28 | 86 | 1017.7 |
| 20260506040540 | 13 | 0 | 0.0 | 0.0 | 0.00 | 0.64 | 0.28 | 86 | 1017.7 |
| 20260506040051 | 13 | 0 | 0.0 | 0.0 | 0.00 | 0.64 | 0.28 | 86 | 1017.6 |
| 20260506035540 | 13 | 0 | 0.0 | 0.0 | 0.00 | 0.66 | 0.28 | 86 | 1017.4 |
| 20260506035042 | 13 | 0 | 0.0 | 0.0 | 0.00 | 0.66 | 0.28 | 85 | 1017.5 |
| 20260506034559 | 13 | 0 | 0.0 | 0.0 | 0.00 | 0.66 | 0.28 | 85 | 1017.4 |
| 20260506034044 | 13 | 0 | 0.0 | 0.0 | 0.00 | 0.66 | 0.28 | 85 | 1017.3 |
| 20260506033541 | 13 | 0 | 0.0 | 0.0 | 0.00 | 0.66 | 0.28 | 85 | 1017.2 |
| 20260506033049 | 13 | 0 | 0.0 | 0.0 | 0.00 | 0.66 | 0.28 | 85 | 1017.2 |
| 20260506032546 | 13 | 0 | 0.0 | 0.0 | 0.00 | 0.66 | 0.28 | 85 | 1016.9 |
| 20260506032044 | 13 | 0 | 0.0 | 0.0 | 0.00 | 0.66 | 0.28 | 84 | 1017.0 |
| 20260506031550 | 13 | 0 | 0.0 | 0.0 | 0.00 | 0.66 | 0.28 | 84 | 1016.9 |
| 20260506031039 | 13 | 0 | 0.0 | 0.0 | 0.00 | 0.66 | 0.28 | 84 | 1016.8 |
| 20260506030542 | 14 | 0 | 0.0 | 0.0 | 0.00 | 0.66 | 0.28 | 84 | 1016.7 |
| 20260506030051 | 14 | 0 | 0.0 | 0.0 | 0.00 | 0.66 | 0.28 | 83 | 1016.6 |
| 20260506025541 | 14 | 0 | 0.0 | 0.0 | 0.00 | 0.66 | 0.28 | 83 | 1016.7 |
| 20260506025043 | 14 | 0 | 0.0 | 0.0 | 0.00 | 0.66 | 0.28 | 83 | 1016.6 |
| 20260506024607 | 14 | 0 | 0.0 | 0.0 | 0.00 | 0.66 | 0.28 | 83 | 1016.6 |
| 20260506024041 | 14 | 0 | 0.0 | 0.0 | 0.00 | 0.66 | 0.28 | 82 | 1016.5 |
| 20260506023541 | 14 | 0 | 0.0 | 6.4 | 0.00 | 0.66 | 0.28 | 82 | 1016.5 |
| 20260506023051 | 15 | 0 | 0.0 | 9.7 | 0.00 | 0.66 | 0.28 | 82 | 1016.6 |
| 20260506022540 | 15 | 0 | 0.0 | 9.7 | 0.00 | 0.66 | 0.28 | 82 | 1016.5 |
| 20260506022040 | 15 | 0 | 0.0 | 11.3 | 0.00 | 0.66 | 0.28 | 81 | 1016.6 |
| 20260506021552 | 15 | 0 | 0.0 | 11.3 | 0.00 | 0.66 | 0.28 | 81 | 1016.6 |
| 20260506021039 | 15 | 0 | 0.0 | 9.7 | 0.00 | 0.66 | 0.28 | 81 | 1016.4 |
| 20260506020539 | 15 | 193 | 0.0 | 9.7 | 0.00 | 0.66 | 0.28 | 80 | 1016.2 |
| 20260506020053 | 15 | 0 | 1.6 | 14.5 | 0.00 | 0.66 | 0.28 | 80 | 1016.2 |
| 20260506015542 | 15 | 0 | 0.0 | 16.1 | 0.00 | 0.66 | 0.28 | 80 | 1016.2 |
| 20260506015040 | 15 | 121 | 4.8 | 16.1 | 0.00 | 0.66 | 0.28 | 79 | 1016.1 |
| 20260506014551 | 15 | 0 | 3.2 | 12.9 | 0.00 | 0.66 | 0.28 | 79 | 1016.0 |
| 20260506014043 | 15 | 174 | 0.0 | 12.9 | 0.00 | 0.66 | 0.28 | 79 | 1016.0 |
| 20260506013544 | 15 | 206 | 1.6 | 12.9 | 0.00 | 0.66 | 0.28 | 79 | 1016.1 |
| 20260506013104 | 15 | 0 | 0.0 | 14.5 | 0.00 | 0.66 | 0.28 | 79 | 1016.0 |
| 20260506012549 | 15 | 0 | 0.0 | 14.5 | 0.00 | 0.66 | 0.28 | 80 | 1016.1 |
| 20260506012041 | 15 | 194 | 0.0 | 0.0 | 0.00 | 0.66 | 0.28 | 79 | 1016.1 |
| 20260506011556 | 15 | 0 | 0.0 | 11.3 | 0.00 | 0.66 | 0.28 | 79 | 1016.2 |
| 20260506011040 | 15 | 0 | 0.0 | 12.9 | 0.00 | 0.66 | 0.28 | 79 | 1016.0 |
| 20260506010540 | 15 | 0 | 0.0 | 12.9 | 0.00 | 0.66 | 0.28 | 78 | 1016.1 |
| 20260506010047 | 15 | 0 | 0.0 | 14.5 | 0.00 | 0.66 | 0.28 | 78 | 1016.1 |
| 20260506005540 | 15 | 184 | 3.2 | 17.7 | 0.00 | 0.66 | 0.28 | 78 | 1016.0 |
| 20260506005039 | 16 | 154 | 3.2 | 17.7 | 0.00 | 0.66 | 0.28 | 78 | 1015.9 |
| 20260506004551 | 16 | 0 | 0.0 | 4.8 | 0.00 | 0.66 | 0.28 | 79 | 1015.8 |
| 20260506004040 | 16 | 0 | 0.0 | 4.8 | 0.00 | 0.66 | 0.28 | 78 | 1015.9 |
| 20260506003541 | 16 | 0 | 0.0 | 12.9 | 0.00 | 0.66 | 0.28 | 78 | 1015.9 |
| 20260506003048 | 16 | 0 | 0.0 | 12.9 | 0.00 | 0.66 | 0.28 | 78 | 1015.7 |
| 20260506002539 | 16 | 209 | 0.0 | 8.0 | 0.00 | 0.66 | 0.28 | 78 | 1015.7 |
| 20260506002042 | 16 | 0 | 0.0 | 11.3 | 0.00 | 0.66 | 0.28 | 79 | 1015.7 |
| 20260506001550 | 16 | 0 | 0.0 | 11.3 | 0.00 | 0.66 | 0.28 | 79 | 1015.7 |
| 20260506001040 | 16 | 0 | 0.0 | 16.1 | 0.00 | 0.66 | 0.28 | 79 | 1015.6 |
| 20260506000541 | 16 | 0 | 0.0 | 16.1 | 0.00 | 0.66 | 0.28 | 79 | 1015.5 |
| 20260506000049 | 16 | 173 | 0.0 | 0.0 | 0.00 | 0.66 | 0.28 | 79 | 1015.6 |
| 20260505235541 | 16 | 0 | 0.0 | 14.5 | 0.00 | 0.66 | 0.28 | 79 | 1015.6 |
| 20260505235042 | 16 | 0 | 1.6 | 14.5 | 0.00 | 0.66 | 0.28 | 79 | 1015.6 |
| 20260505234545 | 16 | 0 | 1.6 | 14.5 | 0.00 | 0.66 | 0.28 | 79 | 1015.8 |
| 20260505234040 | 16 | 186 | 1.6 | 17.7 | 0.00 | 0.66 | 0.28 | 79 | 1015.9 |
| 20260505233541 | 16 | 0 | 1.6 | 17.7 | 0.00 | 0.66 | 0.28 | 79 | 1015.7 |
| 20260505233050 | 16 | 0 | 1.6 | 17.7 | 0.00 | 0.66 | 0.28 | 79 | 1016.0 |
| 20260505232541 | 16 | 0 | 0.0 | 17.7 | 0.00 | 0.66 | 0.28 | 79 | 1016.0 |
| 20260505232043 | 16 | 159 | 0.0 | 17.7 | 0.00 | 0.66 | 0.28 | 79 | 1016.0 |
| 20260505231550 | 16 | 0 | 0.0 | 11.3 | 0.00 | 0.66 | 0.28 | 79 | 1016.0 |
| 20260505231043 | 16 | 0 | 0.0 | 0.0 | 0.00 | 0.66 | 0.28 | 79 | 1016.0 |
| 20260505230539 | 16 | 0 | 0.0 | 1.6 | 0.00 | 0.66 | 0.28 | 78 | 1016.0 |
| 20260505230057 | 16 | 0 | 0.0 | 12.9 | 0.00 | 0.66 | 0.28 | 78 | 1015.9 |
| 20260505225543 | 16 | 0 | 0.0 | 12.9 | 0.00 | 0.66 | 0.28 | 77 | 1016.0 |
| 20260505225044 | 16 | 104 | 0.0 | 14.5 | 0.00 | 0.66 | 0.28 | 77 | 1016.0 |
| 20260505224548 | 17 | 105 | 0.0 | 14.5 | 0.00 | 0.66 | 0.28 | 77 | 1015.9 |
| 20260505224045 | 17 | 152 | 0.0 | 11.3 | 0.00 | 0.66 | 0.28 | 76 | 1015.9 |
| 20260505223543 | 17 | 0 | 0.0 | 14.5 | 0.00 | 0.66 | 0.28 | 77 | 1015.9 |
| 20260505223057 | 17 | 0 | 0.0 | 14.5 | 0.00 | 0.66 | 0.28 | 76 | 1015.9 |
| 20260505222542 | 17 | 0 | 0.0 | 16.1 | 0.00 | 0.66 | 0.28 | 76 | 1015.9 |
| 20260505222040 | 17 | 0 | 0.0 | 16.1 | 0.00 | 0.66 | 0.28 | 77 | 1015.9 |
| 20260505221553 | 17 | 157 | 0.0 | 14.5 | 0.00 | 0.66 | 0.28 | 76 | 1015.9 |
| 20260505221044 | 17 | 0 | 0.0 | 11.3 | 0.00 | 0.66 | 0.28 | 77 | 1015.9 |
| 20260505220541 | 17 | 0 | 0.0 | 11.3 | 0.00 | 0.66 | 0.28 | 77 | 1016.0 |
| 20260505220051 | 17 | 0 | 0.0 | 12.9 | 0.00 | 0.66 | 0.28 | 77 | 1015.9 |
| 20260505215540 | 16 | 0 | 0.0 | 12.9 | 0.00 | 0.66 | 0.28 | 77 | 1016.0 |
| 20260505215040 | 16 | 0 | 0.0 | 9.7 | 0.00 | 0.66 | 0.28 | 76 | 1016.1 |
| 20260505214555 | 16 | 0 | 0.0 | 9.7 | 0.00 | 0.66 | 0.28 | 77 | 1016.2 |
| 20260505214041 | 16 | 0 | 0.0 | 3.2 | 0.00 | 0.66 | 0.28 | 77 | 1016.1 |
| 20260505213543 | 16 | 0 | 0.0 | 3.2 | 0.00 | 0.66 | 0.28 | 78 | 1016.2 |
| 20260505213058 | 16 | 0 | 0.0 | 9.7 | 0.00 | 0.66 | 0.28 | 79 | 1016.3 |
| 20260505212540 | 16 | 0 | 0.0 | 14.5 | 0.00 | 0.66 | 0.28 | 79 | 1016.3 |
| 20260505212040 | 16 | 205 | 1.6 | 14.5 | 0.00 | 0.66 | 0.28 | 78 | 1016.3 |
| 20260505211549 | 16 | 0 | 3.2 | 14.5 | 0.00 | 0.66 | 0.28 | 78 | 1016.3 |
| 20260505211040 | 16 | 0 | 1.6 | 14.5 | 0.00 | 0.66 | 0.28 | 78 | 1016.3 |
| 20260505210542 | 16 | 0 | 0.0 | 14.5 | 0.00 | 0.66 | 0.28 | 78 | 1016.3 |
| 20260505210050 | 16 | 144 | 0.0 | 12.9 | 0.00 | 0.66 | 0.28 | 79 | 1016.3 |
| 20260505205542 | 16 | 0 | 0.0 | 11.3 | 0.00 | 0.66 | 0.28 | 78 | 1016.2 |
| 20260505205043 | 16 | 0 | 0.0 | 11.3 | 0.00 | 0.66 | 0.28 | 78 | 1016.2 |
| 20260505204558 | 16 | 0 | 0.0 | 0.0 | 0.00 | 0.66 | 0.28 | 79 | 1016.2 |
| 20260505204043 | 16 | 0 | 0.0 | 0.0 | 0.00 | 0.66 | 0.28 | 78 | 1016.2 |
| 20260505203540 | 16 | 0 | 0.0 | 0.0 | 0.00 | 0.66 | 0.28 | 78 | 1016.3 |
| 20260505203057 | 16 | 0 | 0.0 | 0.0 | 0.00 | 0.66 | 0.28 | 77 | 1016.4 |
| 20260505202540 | 16 | 0 | 0.0 | 0.0 | 0.00 | 0.66 | 0.28 | 77 | 1016.4 |
| 20260505202040 | 16 | 0 | 0.0 | 0.0 | 0.00 | 0.66 | 0.28 | 75 | 1016.3 |